Regional Weather Roundup
Issued by NWS

Home | Current Version | Previous Version | Text Only | Print | Product List | Glossary On
Versions: 1 2 3 4 5 6 7 8 9 10 11 12 13 14 15 16 17 18 19 20 21 22 23 24 25 26 27 28 29 30 31 32 33 34 35 36 37 38 39 40 41 42 43 44 45 46 47 48 49 50
000
ASUS44 KFWD 290410
RWRTX
NORTH TEXAS HOURLY WEATHER ROUNDUP
NATIONAL WEATHER SERVICE FORT WORTH TX
1000 PM CST FRI NOV 28 2014

NOTE: "FAIR" INDICATES FEW OR NO CLOUDS BELOW 12,000 FEET WITH NO
SIGNIFICANT WEATHER AND/OR OBSTRUCTIONS TO VISIBILITY.

TXZ118-119-290500-
DALLAS/FORT WORTH METROPLEX

CITY           SKY/WX    TMP DP  RH WIND       PRES   REMARKS
DFW AIRPORT    PTCLDY    60  47  61 S20       29.98F
DALLAS LOVE    CLEAR     64  46  52 S10G18    30.00F
FTW MEACHAM    CLEAR     62  46  55 S16       29.98F
DAL-EXECUTIVE  CLEAR     65  45  48 S9G18     30.00F
FTW-ALLIANCE   MOCLDY    61  45  55 S17G30    29.97S
FTW-SPINKS     CLEAR     61  46  59 S14G23    30.02S
ARLINGTON      CLEAR     62  45  53 S12       30.00F
GRAND PRAIRIE  CLEAR     61  48  62 S12G17    30.02S
ADDISON        CLEAR     64  49  59 S10G18    30.01S
MESQUITE       CLEAR     58  48  70 S12       30.02S
LANCASTER      CLEAR     58  46  64 S8        30.03F
$$

TXZ091>094-102>105-117-120-121-131>134-290500-
NORTH CENTRAL TEXAS

CITY           SKY/WX    TMP DP  RH WIND       PRES   REMARKS
SHRMAN/DENISON CLEAR     62  51  66 S20G29    29.96F
BOWIE          CLEAR     57  47  70 S10       29.93F
BRIDGEPORT     CLEAR     63  47  57 S14G23    29.97F
DECATUR        CLEAR     61  45  55 S17G25    29.95F
DENTON         CLEAR     60  46  59 S15       29.97F
MCKINNEY       CLEAR     62  48  60 S17G26    29.98F
GREENVILLE     CLEAR     57  50  77 S10       30.01S
ROCKWALL       CLEAR     58  50  74 S15       30.00S
TERRELL        CLEAR     61  51  70 S12       30.03F
WAXAHACHIE     CLEAR     61  47  61 S16       30.03F
CLEBURNE       CLEAR     59  48  67 S13G18    30.03S
GRANBURY       CLEAR     62  46  56 S10       30.02S
$$

TXZ083>090-098>101-113>116-127>130-139>142-154-155-290500-
WESTERN NORTH TEXAS

CITY           SKY/WX    TMP DP  RH WIND       PRES   REMARKS
WICHITA FALLS  CLEAR     60  44  55 S20       29.88S
WF-KICKAPOO    CLEAR     59  43  54 S14       29.90F
VERNON         CLEAR     61  39  44 S16       29.86S
ABILENE        CLEAR     59  39  47 SW22      29.99F
ABILENE-DYESS  CLEAR     60  41  50 S21       29.98F
BRECKENRIDGE   CLEAR     60  41  48 S14       29.97S
GRAHAM         CLEAR     60  43  53 S8        29.94S
MINERAL WELLS  CLEAR     57  46  66 S12       29.97F
STEPHENVILLE   CLEAR     57  45  63 S8        30.05S
COMANCHE       CLEAR     58  45  62 S14G22    30.03F
BROWNWOOD      CLEAR     54  41  62 S7        30.05S
COLEMAN        CLEAR     55  44  66 SW10      30.04S
BRADY          CLEAR     55  43  62 S13       30.05F
$$

TXZ143>147-156>162-174-175-290500-
CENTRAL TEXAS

CITY           SKY/WX    TMP DP  RH WIND       PRES   REMARKS
WACO           CLEAR     58  47  66 S10       30.06S
WACO-MCGREGOR  CLEAR     57  43  58 S9        30.08R
HILLSBORO      CLEAR     59  46  60 S14       30.03F
CORSICANA      CLEAR     56  50  80 S8        30.06F
MEXIA          CLEAR     57  51  80 S12       30.06F
HEARNE         CLEAR     56  51  85 SE7       30.12S
CAMERON        CLEAR     58  50  73 S9        30.09F
TEMPLE         CLEAR     54  43  66 S10       30.06F
KILLEEN        CLEAR     58  47  68 S12G18    30.07F
KILLEEN-SKYLRK CLEAR     54  43  66 S7        30.06F
FORT HOOD      CLEAR     60  47  61 S8        30.07F
GATESVILLE     CLEAR     55  46  71 S6        30.08F
HAMILTON       CLEAR     56  44  65 S8        30.04F
LAMPASAS       CLEAR     56  48  73 S3        30.06S
$$

TXZ095>097-106>112-122>126-135>138-148>153-164>167-290500-
EAST TEXAS

CITY           SKY/WX    TMP DP  RH WIND       PRES   REMARKS
PARIS          CLEAR     52  46  82 S8        30.00F
SULPHUR SPRNGS CLEAR     60  50  70 S14       30.03F
MOUNT PLEASANT CLEAR     57  50  78 S9        30.05F
MINEOLA        CLEAR     59  54  82 S6        30.05S
TYLER          CLEAR     59  53  80 S16       30.05F
LONGVIEW       CLEAR     58  52  80 S13       30.07S
MARSHALL       CLEAR     58  54  84 S7        30.10S
ATHENS         CLEAR     57  52  82 S8        30.06S
PALESTINE      CLEAR     59  55  86 S9        30.10S
JACKSONVILLE   CLEAR     57  54  89 S10G17    30.10F
HENDERSON      CLEAR     58  53  82 S9G16     30.09F
NACOGDOCHES    CLEAR     55  52  88 S10       30.13S
LUFKIN         CLEAR     57  52  83 S7        30.13S
$$

SUPPLEMENTAL OBSERVATIONS (CENTRAL)

CITY           SKY/WX    TMP DP  RH WIND       PRES   REMARKS
PAT MAYSE LAKE   N/A     55  48  76 SE10        N/A
GREENVILLE       N/A     59  50  72 S13         N/A
CEDAR HILL       N/A     63  45  51 S10G21      N/A
PALESTINE        N/A     59  54  82 S8          N/A
MCGREGOR         N/A     54  46  76 SW5         N/A
TEMPLE           N/A     54  45  71 S8          N/A
$$

SUPPLEMENTAL OBSERVATIONS (WEST)

CITY           SKY/WX    TMP DP  RH WIND       PRES   REMARKS
MILLERS CREEK    N/A     59  39  47 SW17        N/A
POSSUM KINGDOM   N/A     61  39  44 S13G24      N/A
GRANBURY         N/A     61  43  51 S12         N/A
HAMBY            N/A     57  37  47 SW21G26     N/A
IVIE RESERVOIR   N/A     57  43  58 S8G17       N/A
COLORADO BEND    N/A     57  45  62 SW10        N/A
$$

SUPPLEMENTAL OBSERVATIONS (EAST)

CITY           SKY/WX    TMP DP  RH WIND       PRES   REMARKS
TEXARKANA        N/A     54  46  76 S3          N/A
LINDEN           N/A     57  50  77 S5G13       N/A
LUFKIN           N/A     55  52  88 MISG        N/A
N SABINE NF      N/A     54  48  82 MISG        N/A
$$

SUPPLEMENTAL OBSERVATIONS ARE A COLLECTION OF AUTOMATED INSTRUMENTS
THAT ARE MAINTAINED BY A VARIETY OF FEDERAL AND STATE AGENCIES.
CERTAIN ELEMENTS...SUCH AS HUMIDITY VALUES AND SUSTAINED WIND
SPEEDS...MAY BE APPROXIMATED.



USA.gov is the U.S. government's official web portal to all federal, state and local government web resources and services.